Orbital Elements at Epoch 2459000.5 (2020-May-31.0) TDB
Reference: JPL 15 (heliocentric ecliptic J2000)
Element | Value | Uncertainty (1-sigma) | Units |
e | .1753479834334239 | 4.6995e-08 | |
a | 3.194557045228474 | 2.6796e-08 | au |
q | 2.634397909384624 | 1.4805e-07 | au |
i | 2.608164351824636 | 5.8029e-06 | deg |
node | 122.2036844755498 | 0.00011495 | deg |
peri | 261.4923661522109 | 0.00011621 | deg |
M | 127.7807617011306 | 1.6991e-05 | deg |
tp | 2458260.251782415249 (2018-May-21.75178241) | 9.5088e-05 | TDB |
period | 2085.520189289595 5.71 | 2.624e-05 7.184e-08 | d yr |
n | .1726188036197479 | 2.1719e-09 | deg/d |
Q | 3.754716181072325 | 3.1495e-08 | au |
|
| | Orbit Determination Parameters
Additional Information
|